星链-1089 (STARLINK-1089 )

导读

STARLINK-1089是美国SpaceX星链互联网卫星项目中的卫星,于2020年1月7日发射。星链计划旨在构建全球卫星互联网星座,为全球提供高速低延迟的宽带服务,该卫星承担着覆盖组网、验证星座技术方案的任务,是星链星座大规模部署进程中的组成单元,推动了低轨卫星互联网产业的发展。

基本信息
目录编号:
44967
目录名称:
STARLINK-1089
国际标识:
2020-001BF
轨道中心:
EARTH
卫星名称:
星链-1089
卫星全名:
星链-1089 (STARLINK-1089 )
卫星状态:
已陨落 最后检测时间 2024-10-15
发射日期:
2020-01-07 UTC
国别 :
美国 (US)
星等 :
--
该卫星已列入 空间交会检测服务 Space Conjunction Data Service (SCDS) ,当前飞行风险评估等级: 无高风险
轨道信息
数据来源 国际轨道数据
星历时间: 2024-10-12T12:41:03+0800
轨道信息已过期700天
半长轴: 6605.958km
偏心率: 0.000882
轨道倾角: 53.046°
近地点辐角 299.357°
升交点赤经 66.710°
平近点角 199.567°
近地点: 221.996km
远地点: 233.65km
周期: 89.056分钟
每日圈数: 16.169595
详细信息
固有亮度:
5
最大亮度:
2.5
卫星平台:
Starlink V1.0
覆盖范围:
全球
运营商:
太空探索技术公司
运营商所在国:
美国
制造商(研发单位):
太空探索技术公司
制造商所在国:
美国
使用方式:
暂无
卫星简介
星链(Starlink)计划是由太空探索技术公司(SpaceX)提出的一个巨型低轨卫星互联网星座项目,计划在2019年至2024年间在太空搭建由约1.2万颗卫星组成的“星链”网络,其中1584颗将部署在地球上空550千米处的近地轨道,并从2020年开始工作。该卫星仍在工作。
与全量物体交会距离演化趋势
与全量物体交会风险概率演化趋势